• In Moldova, Republic
  • List of Countries
  • For 7 days
  • Water Temperature
  • Satellite Maps
  • Weather Map
  • Weather Widgets
  • user-avatar
    Login

    Hourly Weather Gold Coast

    Today, 25 March, Saturday

    Time Temperature Precipitation Wind Pressure Humidity
    00:00 +22°C° 0.2 mm 5 mps 758 mmHg 92%
    01:00 +22°C° 0.2 mm 5 mps 758 mmHg 92%
    02:00 +22°C° 0.1 mm 5 mps 758 mmHg 92%
    03:00 +22°C° 0.1 mm 5 mps 758 mmHg 93%
    04:00 +21°C° 0 mm 5 mps 757 mmHg 91%
    05:00 +22°C° 0 mm 5 mps 757 mmHg 90%
    06:00 +22°C° 0 mm 5 mps 758 mmHg 89%
    07:00 +22°C° 0 mm 5 mps 758 mmHg 88%
    08:00 +23°C° 0 mm 5 mps 758 mmHg 83%
    09:00 +26°C° 0 mm 5 mps 758 mmHg 77%
    10:00 +27°C° 0 mm 5 mps 758 mmHg 71%
    11:00 +28°C° 0 mm 5 mps 758 mmHg 70%
    12:00 +28°C° 0 mm 5 mps 757 mmHg 69%
    13:00 +29°C° 0 mm 5 mps 757 mmHg 68%
    14:00 +28°C° 0 mm 5 mps 757 mmHg 70%
    15:00 +28°C° 0 mm 5 mps 757 mmHg 72%
    16:00 +27°C° 0 mm 5 mps 756 mmHg 74%
    17:00 +26°C° 0 mm 4 mps 757 mmHg 79%
    18:00 +23°C° 0 mm 4 mps 757 mmHg 85%
    19:00 +22°C° 0 mm 3 mps 757 mmHg 90%
    20:00 +21°C° 0 mm 3 mps 757 mmHg 91%
    21:00 +21°C° 0 mm 3 mps 758 mmHg 92%
    22:00 +21°C° 0 mm 2 mps 758 mmHg 93%
    23:00 +20°C° 0 mm 2 mps 758 mmHg 93%

    Tomorrow, 26 March, Sunday

    Time Temperature Precipitation Wind Pressure Humidity
    00:00 +20°C° 0 mm 2 mps 757 mmHg 94%
    01:00 +20°C° 0 mm 1 mps 757 mmHg 94%
    02:00 +20°C° 0 mm 1 mps 757 mmHg 94%
    03:00 +20°C° 0 mm 1 mps 757 mmHg 94%
    04:00 +20°C° 0 mm 1 mps 757 mmHg 95%
    05:00 +21°C° 0 mm 1 mps 757 mmHg 92%
    06:00 +22°C° 0 mm 1 mps 757 mmHg 89%
    07:00 +23°C° 0 mm 1 mps 758 mmHg 87%
    08:00 +25°C° 0 mm 1 mps 758 mmHg 80%
    09:00 +27°C° 0 mm 1 mps 758 mmHg 73%
    10:00 +29°C° 0 mm 2 mps 758 mmHg 67%
    11:00 +30°C° 0 mm 2 mps 757 mmHg 63%
    12:00 +31°C° 0 mm 2 mps 756 mmHg 60%
    13:00 +32°C° 0 mm 2 mps 756 mmHg 56%
    14:00 +31°C° 0 mm 3 mps 756 mmHg 63%
    15:00 +29°C° 0 mm 4 mps 755 mmHg 70%
    16:00 +28°C° 0 mm 4 mps 755 mmHg 77%
    17:00 +27°C° 0 mm 4 mps 756 mmHg 80%
    18:00 +26°C° 0 mm 3 mps 756 mmHg 82%
    19:00 +25°C° 0 mm 3 mps 757 mmHg 85%
    20:00 +24°C° 0 mm 3 mps 757 mmHg 86%
    21:00 +24°C° 0 mm 3 mps 757 mmHg 87%
    22:00 +23°C° 0 mm 2 mps 758 mmHg 89%
    23:00 +23°C° 0 mm 2 mps 757 mmHg 90%

    Day after tomorrow, 27 March, Monday

    Time Temperature Precipitation Wind Pressure Humidity
    00:00 +23°C° 0 mm 2 mps 757 mmHg 90%
    01:00 +21°C° 0 mm 2 mps 757 mmHg 91%
    02:00 +21°C° 0 mm 2 mps 757 mmHg 92%
    03:00 +21°C° 0 mm 2 mps 756 mmHg 92%
    04:00 +20°C° 0 mm 2 mps 756 mmHg 92%
    05:00 +21°C° 0 mm 2 mps 757 mmHg 89%
    06:00 +23°C° 0 mm 2 mps 757 mmHg 87%
    07:00 +24°C° 0 mm 3 mps 757 mmHg 84%
    08:00 +26°C° 0 mm 3 mps 758 mmHg 77%
    09:00 +27°C° 0 mm 4 mps 758 mmHg 71%
    10:00 +29°C° 0 mm 4 mps 758 mmHg 64%
    11:00 +29°C° 0 mm 4 mps 757 mmHg 64%
    12:00 +29°C° 0 mm 4 mps 757 mmHg 64%
    13:00 +30°C° 0 mm 4 mps 756 mmHg 64%
    14:00 +29°C° 0 mm 4 mps 756 mmHg 66%
    15:00 +29°C° 0 mm 4 mps 756 mmHg 69%
    16:00 +28°C° 0 mm 4 mps 755 mmHg 71%
    17:00 +27°C° 0 mm 4 mps 756 mmHg 77%
    18:00 +25°C° 0 mm 4 mps 756 mmHg 82%
    19:00 +23°C° 0 mm 4 mps 757 mmHg 88%
    20:00 +22°C° 0 mm 4 mps 757 mmHg 89%
    21:00 +22°C° 0 mm 3 mps 757 mmHg 90%
    22:00 +22°C° 0 mm 3 mps 757 mmHg 91%
    23:00 +22°C° 0 mm 3 mps 757 mmHg 92%

    28 March, Tuesday

    Time Temperature Precipitation Wind Pressure Humidity
    00:00 +21°C° 0 mm 3 mps 757 mmHg 93%
    01:00 +21°C° 0 mm 3 mps 757 mmHg 93%
    02:00 +21°C° 0 mm 2 mps 756 mmHg 93%
    03:00 +21°C° 0 mm 2 mps 756 mmHg 93%
    04:00 +20°C° 0 mm 2 mps 756 mmHg 93%
    05:00 +21°C° 0 mm 2 mps 756 mmHg 91%
    06:00 +23°C° 0 mm 2 mps 757 mmHg 89%
    07:00 +24°C° 0 mm 2 mps 757 mmHg 87%
    08:00 +26°C° 0 mm 2 mps 757 mmHg 80%
    09:00 +27°C° 0 mm 2 mps 758 mmHg 73%
    10:00 +29°C° 0 mm 2 mps 758 mmHg 66%
    11:00 +30°C° 0 mm 3 mps 757 mmHg 63%
    12:00 +30°C° 0 mm 3 mps 757 mmHg 61%
    13:00 +32°C° 0 mm 4 mps 756 mmHg 59%
    14:00 +30°C° 0 mm 4 mps 756 mmHg 62%
    15:00 +29°C° 0 mm 4 mps 756 mmHg 66%
    16:00 +29°C° 0 mm 5 mps 756 mmHg 70%
    17:00 +27°C° 0 mm 4 mps 756 mmHg 77%
    18:00 +26°C° 0 mm 4 mps 757 mmHg 84%
    19:00 +23°C° 0 mm 4 mps 757 mmHg 91%
    20:00 +23°C° 0 mm 4 mps 758 mmHg 92%
    21:00 +22°C° 0 mm 4 mps 758 mmHg 93%
    22:00 +22°C° 0 mm 4 mps 758 mmHg 94%
    23:00 +22°C° 0 mm 4 mps 758 mmHg 94%

    29 March, Wednesday

    Time Temperature Precipitation Wind Pressure Humidity
    00:00 +22°C° 0 mm 3 mps 758 mmHg 94%
    01:00 +22°C° 0 mm 3 mps 757 mmHg 94%
    02:00 +22°C° 0 mm 4 mps 757 mmHg 93%
    03:00 +22°C° 0 mm 4 mps 757 mmHg 93%
    04:00 +23°C° 0 mm 4 mps 757 mmHg 92%
    05:00 +23°C° 0 mm 4 mps 757 mmHg 91%
    06:00 +23°C° 0 mm 4 mps 758 mmHg 89%
    07:00 +25°C° 0 mm 4 mps 758 mmHg 88%
    08:00 +26°C° 0 mm 4 mps 759 mmHg 83%
    09:00 +26°C° 0 mm 4 mps 759 mmHg 78%
    10:00 +27°C° 0 mm 4 mps 759 mmHg 74%
    11:00 +28°C° 0 mm 4 mps 758 mmHg 71%
    12:00 +28°C° 0 mm 4 mps 758 mmHg 69%
    13:00 +29°C° 0 mm 4 mps 758 mmHg 67%
    14:00 +28°C° 0 mm 4 mps 757 mmHg 68%
    15:00 +28°C° 0 mm 4 mps 757 mmHg 69%
    16:00 +27°C° 0 mm 4 mps 757 mmHg 71%
    17:00 +26°C° 0 mm 4 mps 757 mmHg 74%
    18:00 +25°C° 0 mm 4 mps 758 mmHg 78%
    19:00 +23°C° 0 mm 4 mps 758 mmHg 81%
    20:00 +23°C° 0 mm 4 mps 758 mmHg 83%
    21:00 +22°C° 0 mm 4 mps 758 mmHg 84%
    22:00 +22°C° 0 mm 4 mps 758 mmHg 86%
    23:00 +22°C° 0 mm 4 mps 758 mmHg 86%

    30 March, Thursday

    Time Temperature Precipitation Wind Pressure Humidity
    00:00 +22°C° 0 mm 4 mps 757 mmHg 86%
    01:00 +22°C° 0 mm 3 mps 757 mmHg 86%
    02:00 +22°C° 0 mm 3 mps 757 mmHg 86%
    03:00 +22°C° 0 mm 3 mps 756 mmHg 86%
    04:00 +22°C° 0 mm 3 mps 756 mmHg 86%
    05:00 +22°C° 0 mm 3 mps 756 mmHg 85%
    06:00 +24°C° 0 mm 3 mps 756 mmHg 83%
    07:00 +23°C° 0 mm 4 mps 757 mmHg 81%
    08:00 +25°C° 0 mm 4 mps 756 mmHg 77%
    09:00 +27°C° 0 mm 4 mps 756 mmHg 73%
    10:00 +28°C° 0 mm 5 mps 756 mmHg 70%
    11:00 +27°C° 0.1 mm 5 mps 756 mmHg 72%
    12:00 +27°C° 0.1 mm 5 mps 755 mmHg 74%
    13:00 +27°C° 0.1 mm 5 mps 754 mmHg 76%
    14:00 +26°C° 0.4 mm 5 mps 754 mmHg 81%
    15:00 +25°C° 0.4 mm 5 mps 754 mmHg 87%
    16:00 +25°C° 0.4 mm 5 mps 754 mmHg 92%
    17:00 +23°C° 1.9 mm 6 mps 754 mmHg 93%
    18:00 +23°C° 1.9 mm 6 mps 754 mmHg 95%
    19:00 +23°C° 1.9 mm 6 mps 755 mmHg 96%
    20:00 +23°C° 5.5 mm 6 mps 755 mmHg 96%
    21:00 +23°C° 5.5 mm 6 mps 755 mmHg 97%
    22:00 +23°C° 5.5 mm 6 mps 755 mmHg 97%
    23:00 +23°C° 8.8 mm 6 mps 754 mmHg 97%
    Show more